[[{"header":{"parameterUnit":"m.s-1","parameterCategory":1,"la1":30.2991,"la2":30.254,"lo1":-89.0895,"lo2":-89.0444,"dy":0.0017,"dx":0.0017,"nx":28,"ny":28,"refTime":"2025-06-10T03:00:00:Z","depth":0,"parameterNumber":2,"parameterNumberName":"U-component_of_WINDS"},"data":[0,0,0,0,0,0,0,0,0,0,0,0,0,0,0,0,0,0,0,0,0,0,0,0,0,0,0,0,0,0,0,0,0,0,0,0,0,0,0,0,0,0,0,0,0,0,0,0,0,0,0,0,0,0,0,0,0,0,4.9995,4.9997,0,5.0186,5.0188,5.0191,5.0168,5.0165,5.0162,5.0159,5.0357,5.0365,5.0373,0,0,0,0,0,0,0,0,0,0,0,0,0,4.961,4.9617,4.9994,4.9997,4.9999,5.0186,5.0189,5.0191,5.0168,5.0165,5.0161,5.0157,5.0354,5.0364,5.0374,0,0,0,0,0,0,0,0,0,0,0,0,0,4.9787,4.9619,4.9994,5.001,5.0014,5.0185,5.0189,5.0192,5.0169,5.0164,5.016,5.0155,5.0351,5.0363,5.0375,5.0544,0,0,5.0413,5.0418,0,0,0,0,0,0,0,0,4.9777,4.9801,5.0005,5.0009,5.0013,5.0148,5.0126,5.031,5.017,5.011,5.0159,5.0153,5.0292,5.0308,5.0355,5.0553,5.0562,5.0414,5.0421,5.0426,5.043,0,0,0,0,0,0,0,4.9764,4.9792,5.007,5.0008,5.0013,5.0008,5.0028,5.016,5.0225,5.0115,5.0114,5.0137,5.0293,5.0343,5.0359,5.0564,5.0413,5.0424,5.0432,5.0437,5.091,5.0915,0,0,0,0,0,0,4.9748,4.9782,5.0064,5.0076,4.9881,5.0019,5.0041,5.011,5.0223,5.0236,5.014,5.0135,5.0324,5.0345,5.0366,5.057,5.0426,5.0438,5.0445,5.0905,5.0911,5.0917,0,0,0,0,0,0,4.974,4.9773,5.0056,4.9929,4.9965,5.0031,5.0108,5.0116,5.0166,5.0242,5.0254,5.018,5.0321,5.0349,5.0499,5.0577,5.0443,5.0455,5.0899,5.0907,5.0914,5.0981,0,0,0,0,0,0,4.9729,4.977,4.9835,4.9931,4.9972,5.0187,5.0112,5.0123,5.0187,5.0181,5.0282,5.0294,5.032,5.0481,5.0512,5.0591,5.0464,5.0892,5.0902,5.0912,5.0972,5.099,5.1005,0,0,0,0,0,4.9715,4.9847,4.9838,4.9872,5.0053,5.0191,5.0215,5.0241,5.0193,5.0259,5.0308,5.0291,5.0563,5.0497,5.0531,5.0616,5.0887,5.09,5.0911,5.0964,5.0986,5.1005,0,0,0,0,0,0,4.9759,4.9859,4.9851,5.0018,5.0096,5.0187,5.027,5.0263,5.0357,5.0348,5.0377,5.04,5.0552,5.0599,5.0523,5.0784,5.0719,5.0738,5.0748,5.077,5.0786,5.0771,5.0474,0,0,0,0,0,4.9788,4.9891,4.9973,5.0112,5.0152,5.0204,5.0265,5.0278,5.0361,5.0394,5.0454,5.0535,5.0639,5.0707,5.0807,5.0978,5.1,5.1053,5.107,5.1083,5.1099,5.1193,5.1218,5.0956,5.0956,5.0955,0,0,4.985,4.9917,4.998,5.0123,5.0185,5.0291,5.0232,5.0347,5.0427,5.0412,5.0557,5.0604,5.0697,5.0858,5.0933,5.0902,5.1177,5.1098,5.1108,5.1118,5.1208,5.1233,5.1255,5.0964,5.0962,5.0961,0,0,5.0015,5.0077,5.0199,5.0262,5.0356,5.039,5.0419,5.0512,5.0542,5.0688,5.0679,5.0774,5.0952,5.1018,5.1075,5.1265,5.1253,5.1297,5.1384,5.1475,5.1496,5.1514,5.1581,5.1605,5.1313,5.1313,5.1313,0,5.008,5.0239,5.0263,5.0379,5.0442,5.0432,5.0556,5.0616,5.0739,5.0783,5.0746,5.0969,5.1031,5.1208,5.1254,5.13,5.1335,5.1285,5.1491,5.1509,5.1527,5.1591,5.1617,5.1317,5.1317,5.1316,5.1316,0,5.0313,5.0424,5.0511,5.0628,5.0701,5.0821,5.0863,5.0933,5.094,5.0978,5.1127,5.12,5.1314,5.1357,5.1365,5.1535,5.1513,5.1484,5.1419,5.1556,5.1617,5.1642,5.1324,5.1322,5.1321,5.132,0,0,5.0513,5.0641,5.0673,5.0726,5.0829,5.0915,5.1034,5.1144,5.1204,5.1289,5.1389,5.154,5.1513,5.1577,5.1593,5.1673,5.1818,5.1633,5.1636,5.1665,5.2009,5.203,5.2059,5.181,5.1815,5.1819,5.2001,0,5.0689,5.0899,5.0923,5.111,5.1212,5.1204,5.1307,5.1381,5.142,5.1512,5.1555,5.1661,5.1617,5.1656,5.1735,5.1783,5.1887,5.177,5.1904,5.1909,5.1881,5.2091,5.2114,5.2283,5.2025,5.2029,5.2032,0,5.0923,5.1013,5.1209,5.1297,5.1341,5.1433,5.1536,5.1624,5.1709,5.1731,5.1802,5.1807,5.193,5.186,5.2029,5.1949,5.2006,5.2038,5.2045,5.2058,5.1979,5.211,5.2337,5.2362,5.207,5.2067,5.2064,0,5.1049,5.1219,5.1358,5.1404,5.151,5.1575,5.1622,5.1702,5.1766,5.1856,5.1898,5.2002,5.2059,5.2139,5.2172,5.2118,5.234,5.2272,5.2362,5.2361,5.2409,5.2405,5.2648,5.2445,5.2445,5.2444,5.2444,0,5.1243,5.1363,5.1416,5.1502,5.1636,5.1663,5.1796,5.1841,5.1911,5.2006,5.2005,5.2094,5.2131,5.2226,5.2252,5.2389,5.2415,5.2436,5.2442,5.2436,5.2433,5.2473,5.2462,5.2451,5.245,5.2448,5.2447,0,5.1407,5.1447,5.1598,5.1685,5.171,5.1805,5.188,5.1963,5.2,5.2119,5.2149,5.2207,5.2318,5.2358,5.2494,5.2512,5.267,5.2666,5.2641,5.2642,5.2729,5.272,5.3006,5.3045,5.2817,5.2819,5.282,0,5.1528,5.162,5.1717,5.1779,5.1828,5.193,5.1995,5.2025,5.2093,5.2195,5.2266,5.2376,5.2466,5.2645,5.2699,5.2803,5.2801,5.2894,5.2817,5.2808,5.2802,5.2796,5.2805,5.2909,5.2911,5.2913,5.2914,0,5.1739,5.1753,5.1847,5.1948,5.2026,5.2107,5.2186,5.2238,5.2279,5.2356,5.2469,5.2539,5.2676,5.2786,5.2892,5.2941,5.2935,5.2938,5.2964,5.296,5.2941,5.2952,5.268,5.2932,5.293,5.2929,5.2928,5.2927,5.1885,5.1966,5.2046,5.2151,5.2213,5.2286,5.2368,5.2414,5.2508,5.2622,5.2634,5.2756,5.2837,5.2978,5.3032,5.3128,5.3103,5.314,5.315,5.3159,5.3165,5.2926,5.3147,5.3147,5.3147,5.3146,5.3146,0,5.2095,5.2146,5.2242,5.2351,5.2433,5.2419,5.2505,5.2575,5.2681,5.2757,5.2845,5.2974,5.308,5.3143,5.3249,5.3314,5.3313,5.334,5.3336,5.3347,5.3182,5.3148,5.3339,5.3339,5.3339,5.3339,5.3339,5.3339,5.2215,5.2351,5.2375,5.2542,5.2592,5.271,5.276,5.2828,5.2888,5.3032,5.312,5.3159,5.323,5.3341,5.3437,5.3453,5.3492,5.3521,5.3535,5.3379,5.3359,5.334,5.3309,5.353,5.353,5.3692,5.3693,5.3695]},{"header":{"parameterUnit":"m.s-1","parameterCategory":1,"la1":30.2991,"la2":30.254,"lo1":-89.0895,"lo2":-89.0444,"dy":0.0017,"dx":0.0017,"nx":28,"ny":28,"refTime":"2025-06-10T03:00:00:Z","depth":0,"parameterNumber":3,"parameterNumberName":"V-component_of_WINDS"},"data":[0,0,0,0,0,0,0,0,0,0,0,0,0,0,0,0,0,0,0,0,0,0,0,0,0,0,0,0,0,0,0,0,0,0,0,0,0,0,0,0,0,0,0,0,0,0,0,0,0,0,0,0,0,0,0,0,0,0,-0.0165,-0.0165,0,-0.0128,-0.0128,-0.0127,-0.0157,-0.0159,-0.016,-0.0161,-0.0118,-0.0116,-0.0114,0,0,0,0,0,0,0,0,0,0,0,0,0,-0.0258,-0.0256,-0.0165,-0.0165,-0.0164,-0.0128,-0.0128,-0.0127,-0.0157,-0.0159,-0.016,-0.0162,-0.0119,-0.0116,-0.0114,0,0,0,0,0,0,0,0,0,0,0,0,0,-0.0218,-0.0255,-0.0165,-0.0175,-0.0175,-0.0128,-0.0128,-0.0127,-0.0157,-0.0159,-0.0161,-0.0162,-0.012,-0.0117,-0.0113,-0.0053,0,0,-0.0103,-0.0101,0,0,0,0,0,0,0,0,-0.0221,-0.0215,-0.0174,-0.0174,-0.0175,-0.0149,-0.0145,-0.0102,-0.0156,-0.0164,-0.0161,-0.0163,-0.0127,-0.0123,-0.0112,-0.0051,-0.0049,-0.0102,-0.01,-0.0099,-0.0098,0,0,0,0,0,0,0,-0.0223,-0.0217,-0.015,-0.0173,-0.0174,-0.018,-0.0176,-0.0137,-0.0135,-0.0163,-0.0165,-0.0161,-0.0127,-0.0115,-0.0111,-0.0049,-0.0102,-0.0099,-0.0097,-0.0096,0.0065,0.0067,0,0,0,0,0,0,-0.0226,-0.0219,-0.0151,-0.0149,-0.0203,-0.0176,-0.0173,-0.0155,-0.0135,-0.0134,-0.0159,-0.0162,-0.012,-0.0115,-0.0109,-0.0036,-0.0099,-0.0095,-0.0093,0.0062,0.0065,0.0067,0,0,0,0,0,0,-0.0228,-0.0219,-0.0153,-0.0185,-0.0177,-0.0173,-0.0153,-0.0154,-0.0141,-0.0132,-0.0132,-0.0147,-0.0121,-0.0114,-0.0067,-0.0035,-0.0094,-0.0091,0.006,0.0063,0.0066,0.0109,0,0,0,0,0,0,-0.023,-0.022,-0.0198,-0.0184,-0.0175,-0.0112,-0.0151,-0.0152,-0.0136,-0.0139,-0.0121,-0.0119,-0.0122,-0.0072,-0.0063,-0.0032,-0.0088,0.0057,0.0061,0.0065,0.0105,0.0114,0.0121,0,0,0,0,0,-0.0233,-0.0187,-0.0197,-0.0188,-0.0148,-0.011,-0.0105,-0.0111,-0.0133,-0.011,-0.0104,-0.012,-0.0041,-0.0067,-0.0057,-0.0024,0.0055,0.006,0.0065,0.0102,0.0112,0.0121,0,0,0,0,0,0,-0.0195,-0.0185,-0.0196,-0.0144,-0.0128,-0.0116,-0.0087,-0.01,-0.0076,-0.008,-0.0087,-0.0082,-0.0032,-0.0024,-0.0053,0.0036,0.0004,0.0011,0.0029,0.0039,0.0046,0.0044,-0.0085,0,0,0,0,0,-0.0181,-0.0154,-0.0145,-0.01,-0.0092,-0.0091,-0.0075,-0.008,-0.0064,-0.0056,-0.0047,-0.0029,-0.0,0.0019,0.0047,0.0106,0.011,0.0133,0.0141,0.0147,0.0154,0.0188,0.0198,0.0083,0.0083,0.0083,0,0,-0.0151,-0.0142,-0.0124,-0.0092,-0.008,-0.005,-0.0085,-0.0051,-0.0028,-0.0051,-0.0006,0.0002,0.0022,0.0076,0.01,0.0084,0.0187,0.0154,0.0159,0.0162,0.0194,0.0205,0.0214,0.0087,0.0086,0.0086,0,0,-0.008,-0.0072,-0.0032,-0.002,-0.0003,-0.0002,0.0007,0.0021,0.0025,0.007,0.0053,0.0081,0.0131,0.0146,0.0161,0.0237,0.0225,0.0246,0.0288,0.0321,0.033,0.0338,0.0367,0.0377,0.0252,0.0253,0.0253,0,-0.0045,-0.0001,-0.001,0.0025,0.004,0.0019,0.006,0.0072,0.0099,0.011,0.0092,0.0154,0.0166,0.0224,0.0242,0.0254,0.0266,0.0245,0.0329,0.0337,0.0344,0.0372,0.0383,0.0255,0.0255,0.0255,0.0254,0,0.0043,0.0074,0.0104,0.0128,0.0147,0.0185,0.0183,0.0203,0.0195,0.0198,0.0245,0.0258,0.0288,0.0301,0.0294,0.0358,0.0348,0.0329,0.0298,0.0358,0.0384,0.0394,0.0259,0.0258,0.0257,0.0257,0,0,0.014,0.0158,0.017,0.0181,0.0198,0.0223,0.026,0.0288,0.0306,0.0325,0.0357,0.04,0.0383,0.0399,0.0394,0.0422,0.0484,0.04,0.0401,0.0417,0.0557,0.0572,0.0585,0.0475,0.0477,0.0478,0.0556,0,0.0213,0.0276,0.0269,0.0331,0.036,0.034,0.0373,0.0388,0.0392,0.0418,0.0422,0.0453,0.0427,0.0437,0.0464,0.0471,0.0512,0.0465,0.0507,0.0509,0.0504,0.0598,0.0614,0.0687,0.0566,0.0568,0.0569,0,0.0306,0.0327,0.0391,0.0405,0.0417,0.0446,0.0472,0.0497,0.0514,0.0515,0.0533,0.0523,0.0562,0.0528,0.0583,0.0551,0.0568,0.0574,0.0576,0.0582,0.0544,0.0607,0.071,0.0721,0.0584,0.0583,0.0582,0,0.0372,0.0417,0.0461,0.0471,0.0487,0.0509,0.0517,0.0532,0.055,0.0572,0.0584,0.0611,0.0627,0.0649,0.0647,0.0622,0.0704,0.0669,0.0707,0.0708,0.0727,0.0726,0.0835,0.0735,0.0735,0.0735,0.0734,0,0.0455,0.0496,0.0491,0.0518,0.0563,0.0555,0.0601,0.0607,0.062,0.065,0.0634,0.0663,0.0658,0.0687,0.0686,0.0732,0.0739,0.0742,0.0742,0.0745,0.0745,0.0757,0.0753,0.0737,0.0737,0.0736,0.0736,0,0.0538,0.0535,0.0583,0.0594,0.0598,0.0631,0.0642,0.0669,0.067,0.0708,0.0717,0.072,0.0753,0.0753,0.0791,0.0791,0.0849,0.0842,0.0843,0.0842,0.0881,0.0878,0.1003,0.102,0.0907,0.0908,0.0909,0,0.0591,0.0622,0.0637,0.0654,0.0664,0.0693,0.071,0.0704,0.0723,0.0745,0.077,0.0801,0.0826,0.088,0.0887,0.0917,0.0911,0.0953,0.0916,0.0918,0.0914,0.0913,0.0917,0.0961,0.0963,0.0964,0.0964,0,0.0688,0.0685,0.071,0.0735,0.0756,0.0776,0.0794,0.081,0.0806,0.0828,0.0861,0.0881,0.0919,0.0951,0.098,0.099,0.0978,0.0976,0.0986,0.0991,0.099,0.0993,0.0864,0.0973,0.0972,0.0972,0.0971,0.0971,0.0759,0.0785,0.08,0.0829,0.0841,0.0859,0.0885,0.0889,0.0916,0.0946,0.0941,0.0978,0.0996,0.1032,0.1045,0.1075,0.1061,0.1076,0.108,0.1085,0.109,0.0984,0.108,0.108,0.108,0.108,0.1079,0,0.0855,0.0864,0.089,0.0916,0.0939,0.0923,0.0942,0.0963,0.0996,0.1012,0.1037,0.1076,0.1107,0.1116,0.1146,0.1169,0.1164,0.1177,0.1177,0.1179,0.11,0.1088,0.1181,0.1181,0.1181,0.1181,0.1181,0.1181,0.0909,0.0953,0.0953,0.1004,0.1012,0.1048,0.106,0.1077,0.109,0.1134,0.1159,0.1164,0.1179,0.121,0.1238,0.124,0.1253,0.1269,0.1269,0.1195,0.1185,0.1175,0.1164,0.1271,0.1272,0.1346,0.1347,0.1348]}]]